Change the Weather History Date:

Monday, December 17, 2012

  Actual Average Record
Temperature  
Mean Temperature 25 °F 12 °F  
Max Temperature 36 °F 26 °F 44 °F (1998)
Min Temperature 13 °F -2 °F -24 °F (1990)
Degree Days  
Heating Degree Days 40 53  
Month to date heating degree days 739 873  
Since 1 July heating degree days 2904 3688  
Cooling Degree Days 0 0  
Month to date cooling degree days 0 0  
Year to date cooling degree days 67 35  
Moisture  
Dew Point 18 °F    
Average Humidity 75    
Maximum Humidity 92    
Minimum Humidity 57    
Precipitation  
Precipitation T in 0.01 in 0.05 in (1992)
Month to date precipitation 0.04 0.15  
Year to date precipitation 2.69 6.33  
Sea Level Pressure  
Sea Level Pressure 29.63 in    
Wind  
Wind Speed 11 mph (WNW)    
Max Wind Speed 33 mph    
Max Gust Speed 43 mph    
Visibility 4 miles    
Events Fog , Snow    
T = Trace of Precipitation, MM = Missing Value Source: NWS Daily Summary

Daily Weather History Graph

Daily Weather History Graph

Search for Another Location

Airport or City:

Trip Planner

Search our weather history database for the weather conditions in past years. The results will help you decide how hot, cold, wet, or windy it might be!

Date:

Astronomy

Dec. 17, 2012 Rise Set
Actual Time 7:45 AM MST 4:48 PM MST
Civil Twilight 7:12 AM MST 5:20 PM MST
Nautical Twilight 6:37 AM MST 5:56 PM MST
Astronomical Twilight 6:03 AM MST 6:30 PM MST
Moon 10:50 AM MST (12/17) 10:20 PM MST (12/17)
Length of Visible Light 10h 07m
Length of Day
9h 03m
Waxing Crescent, 25% of the Moon is Illuminated
Dec 17
Waxing Crescent
Dec 19
First Quarter
Dec 28
Full
Jan 4
Last Quarter
Jan 11
New

Hourly Weather History & Observations

Time (MST) Temp. Windchill Dew Point Humidity Pressure Visibility Wind Dir Wind Speed Gust Speed Precip Events Conditions
12:53 AM 15.1 °F - 12.0 °F 88% 29.82 in 7.0 mi Calm Calm - 0.00 in Snow Light Snow
1:53 AM 15.1 °F 6.4 °F 12.0 °F 88% 29.80 in 9.0 mi East 5.8 mph - 0.00 in Snow Light Snow
2:53 AM 15.1 °F 6.4 °F 12.0 °F 88% 29.78 in 6.0 mi East 5.8 mph - 0.00 in Snow Light Snow
3:47 AM 15.8 °F - 12.2 °F 86% 29.68 in 1.8 mi Calm Calm - 0.00 in Snow Light Snow
3:48 AM 15.8 °F - 12.2 °F 86% 29.68 in 1.8 mi Calm Calm - N/A Snow Light Snow
3:56 AM 15.8 °F - 12.2 °F 86% 29.67 in 2.5 mi Calm Calm - 0.00 in Snow Light Snow
4:07 AM 15.8 °F - 12.2 °F 86% 29.67 in 4.0 mi Calm Calm - 0.00 in Snow Light Snow
4:44 AM 15.8 °F - 12.2 °F 86% 29.66 in 1.8 mi Calm Calm - 0.00 in Snow Light Snow
4:53 AM 16.0 °F - 12.9 °F 88% 29.75 in 1.0 mi Calm Calm - 0.00 in Snow Light Snow
5:53 AM 17.1 °F - 12.9 °F 84% 29.74 in 1.2 mi Calm Calm - 0.00 in Snow Light Snow
6:01 AM 15.8 °F - 12.2 °F 86% 29.63 in 2.0 mi Calm Calm - 0.00 in Snow Light Snow
6:18 AM 17.6 °F - 14.0 °F 86% 29.63 in 1.2 mi Calm Calm - 0.00 in Snow Light Snow
6:29 AM 17.6 °F - 14.0 °F 86% 29.62 in 0.8 mi Calm Calm - 0.00 in Snow Light Snow
6:38 AM 17.6 °F - 14.0 °F 86% 29.62 in 1.2 mi Calm Calm - 0.00 in Snow Light Snow
6:53 AM 17.1 °F - 12.9 °F 84% 29.72 in 2.0 mi Calm Calm - 0.00 in Snow Light Snow
6:56 AM 15.8 °F - 12.2 °F 86% 29.62 in 3.0 mi Calm Calm - 0.00 in Snow Light Snow
7:13 AM 17.6 °F 10.7 °F 14.0 °F 86% 29.61 in 6.0 mi ESE 4.6 mph - 0.00 in Snow Light Snow
7:23 AM 17.6 °F 12.3 °F 14.0 °F 86% 29.60 in 1.8 mi ESE 3.5 mph - 0.00 in Snow Light Snow
7:35 AM 17.6 °F - 15.8 °F 93% 29.60 in 1.8 mi Calm Calm - 0.00 in Snow Light Snow
7:48 AM 17.6 °F - 15.8 °F 93% 29.60 in 1.2 mi Calm Calm - 0.00 in Snow Light Snow
7:53 AM 18.0 °F - 15.1 °F 88% 29.69 in 1.2 mi Calm Calm - 0.00 in Snow Light Snow
8:11 AM 17.6 °F 10.7 °F 15.8 °F 93% 29.59 in 1.2 mi ENE 4.6 mph - 0.00 in Snow Light Snow
8:18 AM 19.4 °F 11.5 °F 15.8 °F 86% 29.59 in 2.5 mi ENE 5.8 mph - 0.00 in Snow Light Snow
8:25 AM 19.4 °F 14.3 °F 17.6 °F 93% 29.59 in 0.8 mi ENE 3.5 mph - 0.00 in Snow Light Snow
8:32 AM 19.4 °F - 17.6 °F 93% 29.58 in 0.5 mi Calm Calm - 0.00 in Fog , Snow Snow
8:37 AM 19.4 °F - 17.6 °F 93% 29.58 in 1.0 mi Calm Calm - 0.00 in Snow Light Snow
8:47 AM 21.2 °F - 17.6 °F 86% 29.58 in 3.0 mi Calm Calm - 0.00 in Snow Light Snow
8:53 AM 21.0 °F 16.2 °F 18.0 °F 88% 29.66 in 6.0 mi SSW 3.5 mph - 0.00 in Snow Light Snow
9:03 AM 21.2 °F 16.4 °F 19.4 °F 93% 29.57 in 2.5 mi South 3.5 mph - 0.00 in Snow Light Snow
9:10 AM 21.2 °F - 19.4 °F 93% 29.57 in 0.8 mi Calm Calm - 0.00 in Snow Light Snow
9:12 AM 21.2 °F - 19.4 °F 93% 29.57 in 1.0 mi Calm Calm - 0.00 in Snow Light Snow
9:21 AM 21.2 °F - 19.4 °F 93% 29.56 in 3.0 mi Calm Calm - 0.00 in Snow Light Snow
9:53 AM 28.0 °F 21.7 °F 24.1 °F 85% 29.62 in 10.0 mi NW 5.8 mph - 0.00 in   Mostly Cloudy
10:04 AM 32.0 °F 17.2 °F 24.8 °F 75% 29.58 in 1.5 mi West 32.2 mph 42.6 mph 0.00 in Snow Light Snow
10:07 AM 30.2 °F 14.9 °F 26.6 °F 86% 29.58 in 0.5 mi West 31.1 mph 42.6 mph 0.00 in Fog , Snow Snow
10:21 AM 30.2 °F 19.3 °F 28.4 °F 93% 29.56 in 1.8 mi WNW 15.0 mph 26.5 mph 0.00 in Snow Light Snow
10:23 AM 32.0 °F 21.6 °F 28.4 °F 87% 29.55 in 3.0 mi WNW 15.0 mph 26.5 mph 0.00 in Snow Light Snow
10:53 AM 34.0 °F 22.7 °F 27.0 °F 75% 29.60 in 10.0 mi WSW 19.6 mph 24.2 mph 0.00 in   Overcast
11:53 AM 35.1 °F 23.0 °F 26.1 °F 70% 29.59 in 10.0 mi West 24.2 mph 32.2 mph N/A   Overcast
12:44 PM 32.0 °F 20.8 °F 26.6 °F 80% 29.55 in 2.5 mi West 17.3 mph 23.0 mph 0.00 in Snow Light Snow
12:53 PM 33.1 °F 22.2 °F 27.0 °F 78% 29.59 in 4.0 mi West 17.3 mph - 0.00 in Snow Light Snow
1:04 PM 32.0 °F 20.8 °F 26.6 °F 80% 29.55 in 9.0 mi West 17.3 mph - 0.00 in   Overcast
1:53 PM 30.9 °F 22.2 °F 26.1 °F 82% 29.61 in 10.0 mi West 10.4 mph - 0.00 in   Overcast
2:09 PM 30.2 °F 20.8 °F 26.6 °F 86% 29.55 in 1.8 mi WNW 11.5 mph - 0.00 in Snow Light Snow
2:15 PM 30.2 °F 21.9 °F 26.6 °F 86% 29.55 in 0.8 mi WNW 9.2 mph - 0.00 in Snow Light Snow
2:33 PM 28.4 °F 17.5 °F 26.6 °F 93% 29.56 in 0.2 mi WNW 13.8 mph - 0.00 in Fog , Snow Snow
2:39 PM 28.4 °F 16.6 °F 24.8 °F 86% 29.57 in 1.0 mi WNW 16.1 mph 23.0 mph 0.00 in Snow Light Snow
2:44 PM 28.4 °F 16.2 °F 24.8 °F 86% 29.57 in 3.0 mi NW 17.3 mph - 0.00 in Snow Light Snow
2:53 PM 28.0 °F 12.5 °F 19.9 °F 72% 29.65 in 9.0 mi NW 28.8 mph 38.0 mph 0.00 in   Overcast
5:37 PM 24.8 °F 14.6 °F 19.4 °F 80% 29.63 in 1.8 mi WNW 10.4 mph - 0.00 in Snow Light Snow
5:53 PM 23.0 °F 12.4 °F 19.9 °F 88% 29.73 in 1.2 mi WNW 10.4 mph - 0.00 in Snow Light Snow
6:02 PM 23.0 °F 13.9 °F 19.4 °F 86% 29.64 in 3.0 mi WNW 8.1 mph - 0.00 in Snow Light Snow
6:53 PM 24.1 °F 12.5 °F 17.1 °F 75% 29.72 in 7.0 mi WNW 12.7 mph - 0.00 in Snow Light Snow
7:53 PM 24.1 °F 11.0 °F 15.1 °F 69% 29.74 in 7.0 mi NW 16.1 mph - 0.00 in Snow Light Snow
8:53 PM 23.0 °F 8.3 °F 10.9 °F 60% 29.74 in 10.0 mi NW 19.6 mph - 0.00 in   Mostly Cloudy
9:53 PM 21.9 °F 9.2 °F 8.1 °F 55% 29.73 in 10.0 mi WNW 13.8 mph - N/A   Mostly Cloudy
10:53 PM 21.0 °F 6.6 °F 8.1 °F 57% 29.70 in 10.0 mi WNW 17.3 mph - N/A   Overcast
11:53 PM 19.9 °F 4.8 °F 5.0 °F 52% 29.71 in 10.0 mi WNW 18.4 mph - N/A   Clear